IGO1903 VABB-LGAV

Flight info

Callsign IGO1903
Flight time N/A
Altitude 32000
Route RAXET2A SAKUN DCT BIMOT DCT KARKU L301 RAGMA DCT IVOXI/N0474F340 P699 TUDIS N571 ALPOB L768 AAR DCT TRF/N0463F360 R652 OBROD Q163 GENEX L53 ANIDE UL53 TIPAS UN137 NEVRA
Aircraft A21N/M-SDE3FGHIRWY/LB1

Departure

Time 2026-05-07 04:28
Airport Chhatrapati Shivaji Maharaj International Airport (VABB)

Arrival

Time N/A
Airport Athens Eleftherios Venizelos International Airport (LGAV)
Time Latitude Longitude Altitude Speed Heading
2026-05-07 03:58 19.09460 72.87560 36 ft 0 kts 32°
2026-05-07 04:03 19.09459 72.87560 36 ft 0 kts 32°
2026-05-07 04:14 19.09448 72.87553 36 ft 2 kts 32°
2026-05-07 04:14 19.09435 72.87544 35 ft 2 kts 32°
2026-05-07 04:14 19.09422 72.87536 35 ft 2 kts 32°
2026-05-07 04:15 19.09409 72.87527 35 ft 2 kts 32°
2026-05-07 04:15 19.09397 72.87519 35 ft 1 kts 32°
2026-05-07 04:15 19.09389 72.87516 35 ft 1 kts 338°
2026-05-07 04:15 19.09381 72.87524 34 ft 2 kts 298°
2026-05-07 04:16 19.09374 72.87536 34 ft 1 kts 313°
2026-05-07 04:16 19.09373 72.87537 34 ft 0 kts 313°
2026-05-07 04:19 19.09376 72.87534 34 ft 2 kts 313°
2026-05-07 04:20 19.09403 72.87495 35 ft 10 kts 295°
2026-05-07 04:20 19.09407 72.87425 36 ft 9 kts 249°
2026-05-07 04:20 19.09355 72.87376 34 ft 11 kts 204°
2026-05-07 04:21 19.09236 72.87271 32 ft 12 kts 267°
2026-05-07 04:21 19.09233 72.87187 32 ft 10 kts 268°
2026-05-07 04:21 19.09224 72.87112 31 ft 10 kts 237°
2026-05-07 04:21 19.09157 72.87066 30 ft 13 kts 224°
2026-05-07 04:22 19.09132 72.86962 30 ft 14 kts 269°
2026-05-07 04:22 19.09120 72.86856 30 ft 13 kts 244°
2026-05-07 04:22 19.09068 72.86790 30 ft 6 kts 228°
2026-05-07 04:22 19.09053 72.86771 30 ft 3 kts 241°
2026-05-07 04:23 19.09046 72.86746 30 ft 5 kts 262°
2026-05-07 04:23 19.09041 72.86686 30 ft 10 kts 267°
2026-05-07 04:23 19.09039 72.86592 30 ft 14 kts 269°
2026-05-07 04:23 19.09038 72.86478 31 ft 17 kts 269°
2026-05-07 04:24 19.09036 72.86344 31 ft 17 kts 269°
2026-05-07 04:24 19.09034 72.86217 31 ft 16 kts 269°
2026-05-07 04:24 19.09032 72.86091 31 ft 18 kts 269°
2026-05-07 04:24 19.09031 72.85926 30 ft 27 kts 269°
2026-05-07 04:25 19.09027 72.85726 28 ft 26 kts 269°
2026-05-07 04:25 19.09025 72.85544 28 ft 24 kts 269°
2026-05-07 04:25 19.09023 72.85373 28 ft 22 kts 269°
2026-05-07 04:25 19.09021 72.85210 25 ft 22 kts 270°
2026-05-07 04:26 19.09005 72.85054 24 ft 20 kts 251°
2026-05-07 04:26 19.08966 72.84933 23 ft 7 kts 253°
2026-05-07 04:26 19.08951 72.84877 22 ft 8 kts 254°
2026-05-07 04:26 19.08914 72.84815 21 ft 12 kts 206°
2026-05-07 04:27 19.08846 72.84869 21 ft 17 kts 97°
2026-05-07 04:27 19.08847 72.85045 21 ft 40 kts 89°
2026-05-07 04:27 19.08854 72.85585 25 ft 106 kts 89°
2026-05-07 04:27 19.08867 72.86575 33 ft 162 kts 88°
2026-05-07 04:28 19.08886 72.87949 116 ft 200 kts 89°
2026-05-07 04:28 19.08881 72.89401 675 ft 201 kts 89°
2026-05-07 04:28 19.08896 72.90886 1319 ft 203 kts 88°
2026-05-07 04:28 19.08922 72.92367 1956 ft 204 kts 87°
2026-05-07 04:29 19.08949 72.93915 2283 ft 217 kts 89°
2026-05-07 04:29 19.08588 72.95496 2518 ft 237 kts 121°
2026-05-07 04:29 19.07326 72.96689 2761 ft 257 kts 157°
2026-05-07 04:29 19.05528 72.96924 3053 ft 273 kts 192°
2026-05-07 04:30 19.03736 72.96188 3566 ft 279 kts 205°
2026-05-07 04:30 19.01876 72.95628 4160 ft 281 kts 180°
2026-05-07 04:30 18.99936 72.95876 4846 ft 279 kts 166°
2026-05-07 04:30 18.98089 72.96378 5488 ft 279 kts 163°
2026-05-07 04:31 18.96205 72.96922 6132 ft 280 kts 164°
2026-05-07 04:31 18.94327 72.97439 6764 ft 281 kts 165°
2026-05-07 04:31 18.92440 72.97935 7389 ft 282 kts 165°
2026-05-07 04:31 18.90523 72.98425 8010 ft 283 kts 166°
2026-05-07 04:32 18.88602 72.98904 8586 ft 284 kts 168°
2026-05-07 04:32 18.86651 72.98943 8878 ft 285 kts 194°
2026-05-07 04:32 18.84892 72.97990 8958 ft 287 kts 221°
2026-05-07 04:32 18.83736 72.96291 8967 ft 290 kts 247°
2026-05-07 04:33 18.83412 72.94200 8965 ft 295 kts 274°
2026-05-07 04:33 18.83886 72.92131 8980 ft 297 kts 285°
2026-05-07 04:33 18.84243 72.90030 8956 ft 294 kts 265°
2026-05-07 04:33 18.83760 72.87973 8969 ft 290 kts 244°
2026-05-07 04:34 18.82946 72.86054 8972 ft 291 kts 244°
2026-05-07 04:34 18.82111 72.84139 8973 ft 291 kts 243°
2026-05-07 04:34 18.81265 72.82230 8969 ft 291 kts 243°
2026-05-07 04:34 18.80408 72.80306 8973 ft 291 kts 243°
2026-05-07 04:35 18.79562 72.78411 9022 ft 291 kts 243°
2026-05-07 04:35 18.78733 72.76555 9000 ft 291 kts 243°
2026-05-07 04:35 18.78002 72.74658 8979 ft 292 kts 253°
2026-05-07 04:35 18.77660 72.72574 9019 ft 297 kts 265°
2026-05-07 04:36 18.77615 72.70376 9472 ft 301 kts 268°
2026-05-07 04:36 18.77616 72.68189 10155 ft 299 kts 269°
2026-05-07 04:36 18.77614 72.66045 10552 ft 307 kts 269°
2026-05-07 04:36 18.77604 72.63794 10795 ft 321 kts 269°
2026-05-07 04:37 18.77588 72.61404 11039 ft 335 kts 269°
2026-05-07 04:37 18.77567 72.58936 11276 ft 348 kts 269°
2026-05-07 04:37 18.77543 72.56363 11504 ft 361 kts 269°
2026-05-07 04:37 18.77516 72.53677 11727 ft 374 kts 269°
2026-05-07 04:38 18.77487 72.50924 11947 ft 386 kts 270°
2026-05-07 04:38 18.77457 72.48128 12146 ft 397 kts 270°
2026-05-07 04:38 18.77457 72.45238 12332 ft 408 kts 273°
2026-05-07 04:38 18.77948 72.42310 12578 ft 416 kts 287°
2026-05-07 04:39 18.79074 72.39587 13042 ft 417 kts 300°
2026-05-07 04:39 18.80694 72.37073 13558 ft 416 kts 306°
2026-05-07 04:39 18.82377 72.34657 13970 ft 419 kts 307°
2026-05-07 04:39 18.84102 72.32201 14360 ft 422 kts 307°
2026-05-07 04:40 18.85775 72.29808 14748 ft 424 kts 307°
2026-05-07 04:40 18.87413 72.27449 15105 ft 426 kts 306°